Location: G�ppingen
(48.7089°N, 9.6563°E)
Time: 07:44:45
(UTC+02:00)

M-CUBED/EXP-1 PRIME - Pass Details

Date: 29 March 2019
Orbit: 430 x 671 km, 101.7° (Epoch: 24 April)

Event Time Altitude Azimuth Distance (km) Brightness Sun altitude
Rises 20:04:50 0° 27° (NNE) 2,997 ? -13.2°
Reaches altitude 10° 20:07:14 10° 37° (NE) 2,097 ? -13.6°
Maximum altitude 20:11:23 33° 101° (ESE) 1,132 ? -14.2°
Drops below altitude 10° 20:15:31 10° 166° (SSE) 2,092 ? -14.9°
Enters shadow 20:16:18 - 170° (S) 2,374 ? -15.0°
